NOAA NWS Hourly Roundups by Site

Regional Weather Roundup for San Diego, CA

To Select Another Site Choose from List

Select Site:  

159
ASUS46 KSGX 130610
RWRSGX

SAN DIEGO HOURLY WEATHER ROUNDUP
NATIONAL WEATHER SERVICE SAN DIEGO CA
1100 PM PDT WED JUN 12 2024

NOTE: "FAIR" INDICATES FEW OR NO CLOUDS BELOW 12,000 FEET WITH NO
SIGNIFICANT WEATHER AND/OR OBSTRUCTIONS TO VISIBILITY.

CAZ042-043-060-061-PZZ750-775-130700-

GREATER SAN DIEGO AREA

CITY           SKY/WX    TMP DP  RH WIND       PRES   REMARKS
SAN DIEGO AP   CLOUDY    63  57  81 NW3       29.97R
BROWN FIELD    CLOUDY    61  57  87 CALM      29.96R
MIRAMAR MCAS   CLOUDY    58  56  93 NW3       29.95S
MONTGOMERY FLD CLOUDY    61  56  83 W3        29.96R
GILLESPIE FLD  CLEAR     61  55  82 W6        29.95S
LEMON GROVE      N/A     60  57  91 W1        29.93S

$$

NORTH SAN DIEGO COUNTY

CITY           SKY/WX    TMP DP  RH WIND       PRES   REMARKS
CAMP PENDLETON CLOUDY    63  57  82 CALM      29.95S
OCEANSIDE AP   CLOUDY    64  58  80 NW3       29.94S
OCEANSIDE HBR    N/A     62  58  87 NE1       30.01S
VISTA            N/A     60  58  90 CALM      29.93S
CARLSBAD       CLOUDY    61  56  83 VRB5      29.95R
LA JOLLA SCRIP   N/A     61  54  76 CALM      29.95S
FALLBROOK      CLOUDY    57  57 100 CALM      29.96F FOG
ESCONDIDO        N/A     62  56  82 W3        29.94S
SAN MARCOS       N/A     60  56  87 CALM      29.92S
RANCHO BERNARD   N/A     60  56  87 CALM      29.93S
POWAY            N/A     59  55  88 CALM      29.96S

$$

EAST SAN DIEGO COUNTY

CITY           SKY/WX    TMP DP  RH WIND       PRES   REMARKS
RAMONA         CLEAR     56  54  93 W3        29.95S
SANTEE           N/A     59  56  88 CALM      29.90S
LA MESA          N/A     59  56  88 CALM      29.89R
EL CAJON         N/A     61  58  90 CALM      29.82S
ALPINE           N/A     62  56  81 CALM      30.09R
DESCANSO N       N/A     57  39  51 N5        29.93S

$$

ORANGE COUNTY AND THE LOS ANGELES BASIN

CITY           SKY/WX    TMP DP  RH WIND       PRES   REMARKS
JOHN WAYNE AP  MOCLDY    64  58  80 SW3       29.95R
LAKE FOREST FR   N/A     59  54  84 CALM      29.81R
SANTA ANA        N/A     63  60  88 CALM      29.92R
HUNTINGTON BCH   N/A     63  60  89 CALM      29.94R
LOS ALAMITOS   CLEAR     59  56  88 NW6       29.92R
FULLERTON      CLEAR     62  61  96 CALM      29.94R
LONG BEACH     CLEAR     64  57  78 NW8       29.95R
L.A. AP        CLOUDY    61  57  87 W13G21    29.96R

$$

THE INLAND EMPIRE

CITY           SKY/WX    TMP DP  RH WIND       PRES   REMARKS
CORONA         CLEAR     63  58  83 W7        29.95S
UPLAND AP      FAIR      66  59  77 W3        29.95S
CHINO          CLEAR     63  57  81 SW5       29.96R
ONTARIO        CLEAR     66  54  65 SW7       29.95R
SAN BERNARDINO CLEAR     69  54  58 W6        29.95S
RIVERSIDE AP   CLEAR     66  57  72 W6        29.94S
MORENO VALLEY    N/A     69  61  77 CALM      29.88R
MARCH ARB      CLEAR     66  57  74 CALM      29.96R
HORSETHIEF CYN   N/A     64  53  68 CALM      29.91R
PERRIS           N/A     71  53  53 CALM      29.95S
LAKE ELSINORE    N/A     68  55  64 CALM      29.84S
HEMET AP       FAIR      66  46  48 SW5       29.96F
FRENCH VALLEY  CLEAR     64  54  68 CALM      29.96S
TEMECULA         N/A     63  56  80 SW2       29.94S

$$

SAN BERNARDINO AND RIVERSIDE COUNTY MOUNTAINS

CITY           SKY/WX    TMP DP  RH WIND       PRES   REMARKS
BIG BEAR AP    CLEAR     48  32  53 CALM      30.23S
BIG BEAR LAKE    N/A     53  32  45 N2        29.86S
WRIGHTWOOD       N/A     57  28  32 CALM      29.66S
ANGELUS OAKS     N/A     56  43  61 CALM      29.77R
IDYLLWILD        N/A     54  30  39 CALM      29.80R

$$

SOUTHERN DESERT INCLUDING THE COACHELLA VALLEY

CITY           SKY/WX    TMP DP  RH WIND       PRES   REMARKS
PALM SPRINGS   CLEAR     91  33  12 NW15      29.79F
THOUSAND PALMS   N/A     88  36  16 NW8       29.72R
THERMAL        CLEAR     90  39  16 NW10      29.74R
BORREGO AP     CLEAR     86  37  17 VRB6G13   29.81S
OCOTILLO WELLS   N/A     91  34  13 NW12      29.73R
CANEBRAKE        N/A     85  32  15 CALM      29.72R
BLYTHE         CLEAR     92  32  12 SW9       29.78R
IMPERIAL AP    CLEAR     89  43  20 NW5       29.75R
EL CENTRO NAS  CLEAR     87  42  20 W13       29.76S
YUMA AZ        CLEAR     88  51  28 SW5       29.77R

$$

UPPER DESERT

CITY           SKY/WX    TMP DP  RH WIND       PRES   REMARKS
VICTORVILLE AP CLEAR     77  36  22 S15       29.98F
HESPERIA         N/A     71  48  43 SW18      29.64S
APPLE VALLEY     N/A     74  49  41 CALM      29.85S
PALMDALE       CLEAR     78  29  16 W13       29.94R
LANCASTER      CLEAR     76  27  16 W17       29.94S
EDWARDS AFB    CLEAR     78  24  13 SW17      29.90R
GRAY BUTTE AP  CLEAR     67  35  30 VRB3      29.92R
DAGGETT          N/A     83  41  22 NW13      29.87R
29 PALMS N     CLEAR     83  30  14 SW9       29.94S
29 PALMS JTNP    N/A     85  37  18 CALM      29.69S
NEEDLES        CLEAR     95  30  10 SW14      29.80R

$$

REGIONAL REPORTS

CITY           SKY/WX    TMP DP  RH WIND       PRES   REMARKS
SANTA BARBARA  CLOUDY    60  58  92 W5        29.94R FOG
SANDBERG       CLEAR     69  19  15 S10       30.09S
LAS VEGAS NV   CLEAR     94  23   8 S8        29.86R
PHOENIX AZ     CLEAR     96  29   9 SW6       29.80S
TIJUANA        CLOUDY    61  57  88 CALM      29.98S
ENSENADA NW      N/A     62  32  32 E6        29.92S

$$

OFFSHORE ISLANDS

CITY           SKY/WX    TMP DP  RH WIND       PRES   REMARKS
CATALINA ARPT  FOG       53  53 100 SW6       29.97R VSB 1/4
SAN NICOLAS IS CLOUDY    57  53  86 W5        29.96R

$$

MARINE AND OFFSHORE BUOY REPORTS

STATION/POSITION SKY/WX   TEMP    WIND        PRES    VSBY  SWELL
                          AIR SEA DIR/SP/G                  HT/PER/DIR
                          (F)     (DEG/KT/KT) (MB)    (MI)  (FT/S/D)
TANNER BANKS               60 61  260/  6/  8 1014.1S
S CLEMENTE BASIN           61 64  320/  8/ 10 1013.7R         3/220/15
SAN NICOLAS IS.            58 59                N/A           5/300/13
SO. S. ROSA ISLA           57 60   CALM  /  2 1013.5R
W. S. BARBARA CH           56 57  270/  4/  6 1013.6R
M. S. BARBARA CH           58 62  260/  6/  8 1013.0R         3/260/10
S. MONICA BASIN            59 63  260/  6/ 10 1014.8R
S PEDRO CHANNEL               63                N/A           2/210/15
OCEANSIDE OFFSHR              67                N/A           2/220/17
TORREY PINES OTR              66                N/A           3/220/15
SAN DIEGO BAY                 69              1014.2R
IMPERIAL BEACH                65                N/A           2/250/17
POINT LOMA SOUTH                                N/A           3/210/15

$$




 

View Past Reports for San Diego, CA.

Products Courtesy of NOAA-NWS
NWS Information Parsing Script by Ken True at Saratoga Weather - Script by SE Lincoln Weather.